Location: Devargunta
(16.7631°N, 80.9077°E)
Time: 12:25:34
(UTC+00:00)

Cosmos 540 Rocket - Pass Details

Date: 06 December 2021
Orbit: 739 x 754 km, 74.1° (Epoch: 26 January)

Event Time Altitude Azimuth Distance (km) Brightness Sun altitude
Exits shadow 23:09:35 16° 212° (SSW) 1,877 5.4 -24.0°
Drops below altitude 10° 23:10:51 10° 202° (SSW) 2,266 5.9 -23.7°
Sets 23:13:30 0° 190° (S) 3,190 6.8 -23.1°
